Content
SEND FEEDBACK

Daily
Averages
Monthly
Summary
Switzerland

GENEVA, SWITZERLAND


Home > Europe > Switzerland
Elevation: 1364 feet     Latitude: 46 15N     Longitude: 006 08E

WEATHER
 
SELECT A DAY
Number of Records: 313,079;   Date Range: 7/1/96 - 10/19/14
 
SHARE

PRINT THIS DATA

[ ← Previous Day ]
WEATHER ALMANAC - FEBRUARY 20, 2013
[ Next Day → ]
[ °C ]   °F
Weather ElementAverageHighLow
Temperature34.7 °F43 °F (2:00 pm)26.6 °F (1:20 am)
Dewpoint27.4 °F32 °F (10:50 am)24 °F (9:00 pm)
Humidity73.5 %93 % (12:20 am)44 % (3:00 pm)
Barometer29.96 in30.05 in (2:00 am)29.92 in (1:50 pm)
Wind Speed8.3 mph18.4 mph (2:20 pm)
Wind Gust23 mph (8:50 pm)
Weather ElementAverage
Visibility5.8 mi
Wind DirectionENE (84.1 °)

Weather ElementTotal
Precipitation---
Heating Degree Days30.2 (Base 65)
Averaged from 64 records on February 20, 2013
WEATHER CONDITIONS BREAKOUT
WIND DIRECTION BREAKOUT
WEATHER BY HOUR - FEBRUARY 20, 2013
[ °C ]   °F
Local TimeTemperatureDewpointHumidityBarometerVisibilityWind DirectionWind SpeedGust SpeedPrecipitationEventsConditions
12:20 AM28.4 °F26.6 °F93 %29.98 in5.0 miVariable1.2 mph
1:20 AM26.6 °F24.8 °F93 %29.98 in4.3 miWNW (300°)1.2 mph
1:50 AM26.6 °F24.8 °F93 %29.98 in4.3 miCalm
2:00 AM28.0 °F25.0 °F83 %30.05 inSW (230°)1.2 mph
2:50 AM26.6 °F24.8 °F93 %29.95 in3.7 miCalmMostly Cloudy
3:00 AM28.0 °F25.0 °F85 %30.05 inCalm
3:20 AM28.4 °F26.6 °F93 %29.98 in3.7 miWest (260°)1.2 mphMostly Cloudy
3:50 AM28.4 °F26.6 °F93 %29.95 in3.7 miVariable2.3 mphScattered Clouds
4:20 AM28.4 °F26.6 °F93 %29.95 in3.7 miVariable1.2 mphMostly Cloudy
4:50 AM28.4 °F26.6 °F93 %29.95 in3.7 miVariable1.2 mphMostly Cloudy
5:00 AM29.0 °F26.0 °F83 %30.03 inNW (310°)1.2 mph
5:20 AM28.4 °F26.6 °F93 %29.95 in3.7 miCalmMostly Cloudy
5:50 AM28.4 °F26.6 °F93 %29.95 in4.3 miWSW (240°)2.3 mphMostly Cloudy
6:00 AM29.0 °F26.0 °F84 %30.03 inWest (260°)2.3 mph
6:20 AM28.4 °F26.6 °F93 %29.95 in5.6 miWSW (240°)1.2 mphScattered Clouds
6:50 AM28.4 °F26.6 °F93 %29.95 in5.6 miSW (230°)2.3 mphScattered Clouds
7:00 AM28.0 °F25.0 °F83 %30.04 in6.0 miSW (220°)1.2 mphMist
7:20 AM26.6 °F24.8 °F93 %29.95 in5.6 miVariable1.2 mphPartly Cloudy
7:50 AM26.6 °F24.8 °F93 %29.95 in5.6 miWSW (250°)1.2 mphPartly Cloudy
8:00 AM27.0 °F25.0 °F87 %30.04 inWest (280°)3.5 mph
8:20 AM26.6 °F24.8 °F93 %29.95 in5.6 miWest (260°)2.3 mphPartly Cloudy
8:50 AM28.4 °F26.6 °F93 %29.95 in5.6 miWSW (250°)3.5 mphPartly Cloudy
9:00 AM30.0 °F26.0 °F81 %30.04 inWNW (290°)2.3 mph
9:20 AM32.0 °F28.4 °F87 %29.95 in5.6 miVariable2.3 mphPartly Cloudy
9:50 AM33.8 °F28.4 °F81 %29.95 in5.6 miSSW (210°)2.3 mphPartly Cloudy
10:20 AM37.4 °F30.2 °F75 %29.95 in6.2 miVariable1.2 mphPartly Cloudy
10:50 AM39.2 °F32.0 °F75 %29.95 in6.2 miNE (40°)4.6 mphPartly Cloudy
11:00 AM40.0 °F31.0 °F59 %30.01 inNNE (30°)6.9 mph
11:20 AM41.0 °F30.2 °F65 %29.95 in6.2 miNE (50°)8.1 mphPartly Cloudy
11:50 AM41.0 °F30.2 °F65 %29.95 in6.2 miNE (50°)13.8 mphPartly Cloudy
12:00 PM42.0 °F31.0 °F53 %29.99 inNE (50°)15.0 mph
12:20 PM41.0 °F30.2 °F65 %29.95 in6.2 miNE (50°)13.8 mphPartly Cloudy
12:50 PM41.0 °F30.2 °F65 %29.95 in6.2 miNE (50°)13.8 mphPartly Cloudy
1:00 PM42.0 °F30.0 °F51 %29.98 in7.0 miNE (50°)16.1 mphHaze
1:20 PM42.8 °F30.2 °F61 %29.95 in6.2 miNE (50°)13.8 mphPartly Cloudy
1:50 PM42.8 °F30.2 °F61 %29.92 in6.2 miNE (50°)15.0 mphPartly Cloudy
2:00 PM43.0 °F30.0 °F48 %29.97 inNE (50°)17.3 mph
2:20 PM42.8 °F30.2 °F61 %29.92 in6.2 miNE (50°)18.4 mphScattered Clouds
2:50 PM42.8 °F30.2 °F61 %29.92 in6.2 miNE (40°)16.1 mphPartly Cloudy
3:00 PM43.0 °F28.0 °F44 %29.96 inNE (40°)17.3 mph
3:20 PM42.8 °F30.2 °F61 %29.92 in6.2 miNE (50°)18.4 mphPartly Cloudy
3:50 PM42.8 °F30.2 °F61 %29.92 in6.2 miNE (50°)17.3 mphScattered Clouds
4:20 PM41.0 °F30.2 °F65 %29.92 in6.2 miNE (50°)16.1 mphScattered Clouds
4:50 PM41.0 °F28.4 °F61 %29.92 in6.2 miNE (40°)15.0 mphMostly Cloudy
5:00 PM40.0 °F28.0 °F52 %29.98 inNNE (30°)16.1 mph
5:20 PM39.2 °F28.4 °F65 %29.92 in6.2 miNE (40°)10.4 mphScattered Clouds
5:50 PM39.2 °F30.2 °F70 %29.92 in6.2 miNNE (30°)13.8 mphMostly Cloudy
6:00 PM39.0 °F29.0 °F57 %29.99 inNNE (30°)13.8 mph
6:20 PM39.2 °F30.2 °F70 %29.95 in6.2 miNE (40°)11.5 mphMostly Cloudy
6:50 PM39.2 °F28.4 °F65 %29.95 in6.2 miNNE (30°)11.5 mphMostly Cloudy
7:00 PM37.0 °F28.0 °F59 %30.00 in11.0 miNNE (30°)12.7 mphMostly Cloudy
7:20 PM37.4 °F28.4 °F70 %29.95 in6.2 miNNE (30°)11.5 mphMostly Cloudy
7:50 PM35.6 °F26.6 °F70 %29.95 in6.2 miNNE (30°)11.5 mphScattered Clouds
8:00 PM36.0 °F26.0 °F55 %30.01 inNNE (30°)11.5 mph
8:20 PM35.6 °F26.6 °F70 %29.95 in6.2 miNNE (30°)11.5 mphScattered Clouds
8:50 PM35.6 °F24.8 °F65 %29.95 in6.2 miNNE (30°)11.5 mph23.0 mphScattered Clouds
9:00 PM35.0 °F24.0 °F52 %30.01 inNNE (30°)11.5 mph
9:20 PM33.8 °F24.8 °F70 %29.95 in6.2 miNNE (30°)11.5 mphScattered Clouds
9:50 PM33.8 °F24.8 °F70 %29.95 in6.2 miNNE (30°)11.5 mphScattered Clouds
10:20 PM33.8 °F24.8 °F70 %29.95 in6.2 miNNE (30°)10.4 mphScattered Clouds
10:50 PM33.8 °F26.6 °F75 %29.95 in6.2 miNE (40°)11.5 mphMostly Cloudy
11:00 PM33.0 °F25.0 °F61 %30.01 inNNE (30°)12.7 mph
11:20 PM33.8 °F24.8 °F70 %29.95 in6.2 miNNE (30°)9.2 mphMostly Cloudy
11:50 PM33.8 °F24.8 °F70 %29.95 in6.2 miNNE (30°)8.1 mphMostly Cloudy
Hourly data recorded from LSGG, located miles away from Geneva, Switzerland







STORIES FROM OUR PARTNERS